Temperature
8 7 7 7 7 8 8 7 7 8 8 8 7 7 8 8 8 8 8 9 9 9 10 10 10 10 10 10 11 11 11 11 11 11 11 11 11 11 12 11 12 12 11 11
7 7 7 7 7 7 7 7 7 8 8 8 7 7 8 7 7 8 8 8 9 9 9 10 10 10 10 10 10 11 11 11 11 11 11 11 11 11 11 11 11 11 11 11
7 8 8 8 7 7 7 7 7 8 7 7 7 7 8 8 7 8 8 8 9 9 9 9 10 10 10 10 10 10 11 10 11 11 11 11 11 11 10 11 11 11 11 11
6 7 8 8 7 7 7 8 7 7 7 6 7 7 7 7 7 7 7 8 8 9 9 9 9 10 10 10 10 10 10 10 10 10 11 11 10 10 10 10 10 10 10 10
7 7 7 7 8 7 7 7 7 7 6 6 6 6 7 7 7 7 7 7 8 8 9 9 9 9 10 10 10 10 10 10 10 10 10 10 10 10 10 10 10 10 10 10
6 7 7 7 7 7 7 7 6 5 5 6 6 6 7 6 7 7 6 7 8 8 9 9 9 9 9 9 9 9 10 10 10 10 10 10 10 9 9 10 9 9 9 9
7 7 7 7 7 6 7 6 6 6 5 6 6 6 6 7 6 6 6 7 7 8 8 9 9 9 9 9 9 9 9 9 9 9 9 9 9 9 9 9 9 9 9 9
6 6 6 6 7 6 6 6 6 7 6 6 5 5 6 6 6 6 6 7 7 7 8 8 8 9 9 9 9 9 9 9 9 9 9 9 9 9 9 9 9 9 9 9
6 6 6 6 6 6 6 5 6 5 5 5 5 5 5 6 5 5 5 5 6 7 7 8 8 8 8 8 9 9 8 8 8 8 8 8 8 8 8 8 8 8 8 8
5 6 6 6 6 6 6 5 4 5 6 6 6 6 6 6 5 5 4 4 5 6 6 7 7 7 8 8 8 8 8 8 8 8 8 8 8 8 8 8 8 8 8 8
5 5 5 5 5 5 5 5 5 4 5 5 6 7 6 5 5 4 4 4 5 6 6 6 7 7 7 7 8 8 8 8 8 7 7 7 7 7 7 7 7 7 7 7
4 4 4 4 5 5 5 5 4 5 4 3 3 5 6 5 4 4 4 4 5 6 6 6 6 7 7 7 7 7 7 7 7 7 7 7 7 7 7 7 7 7 7 7
4 4 4 5 5 4 4 4 4 4 3 2 3 5 5 4 4 4 4 4 5 5 6 6 6 6 6 6 6 7 7 7 7 6 6 6 6 6 6 6 6 6 6 6
5 3 4 5 5 4 4 4 3 3 3 3 3 5 5 4 4 3 4 4 4 5 5 5 6 6 6 6 6 6 6 6 6 6 6 6 6 6 6 6 6 6 6 5
4 3 3 4 4 4 4 4 4 4 4 4 4 4 5 4 4 3 4 4 4 4 5 5 5 5 5 5 5 5 6 6 6 6 6 5 5 5 5 5 5 5 5 5
2 2 2 3 3 3 3 4 4 4 4 4 4 4 4 3 3 3 3 3 3 4 4 4 5 5 5 5 5 5 5 5 5 5 5 5 5 5 5 5 5 5 5 5
1 1 2 2 2 3 2 3 3 3 3 3 4 4 2 2 2 2 2 3 3 3 4 4 4 4 5 4 4 4 4 4 4 4 4 4 4 4 4 4 4 4 4 4
1 1 1 1 1 2 3 3 3 3 3 2 3 2 2 2 2 2 3 3 3 3 3 4 4 4 4 4 4 4 4 4 4 4 4 4 3 3 3 3 3 3 3 3
1 1 0 0 1 2 2 2 2 2 2 1 1 1 1 2 1 1 3 3 3 3 3 3 3 4 4 4 3 3 3 3 3 3 3 3 3 3 3 3 3 3 3 3
0 0 0 0 1 2 2 2 2 2 1 1 1 1 1 1 0 1 2 2 2 2 2 3 3 3 3 3 3 3 2 2 2 2 2 2 2 2 2 2 2 2 2 2
-0 -0 -0 -0 0 1 1 1 2 2 2 1 1 1 0 0 1 1 1 1 1 1 2 2 2 2 2 2 2 2 2 2 2 2 2 2 1 1 1 1 1 1 1 1
-0 -1 -1 -0 -0 0 0 1 1 1 1 1 1 1 0 1 1 1 1 1 1 1 1 1 1 1 1 1 1 1 1 1 1 1 1 1 1 1 1 1 1 1 1 1
-1 -1 -0 -0 0 -0 0 0 1 1 0 0 0 0 0 0 -0 -0 -0 0 0 0 0 0 0 0 0 0 0 0 0 0 0 0 0 0 0 0 0 0 0 0 0 0
-2 -2 -1 -2 -1 -1 -0 0 0 0 0 0 0 0 0 -0 -1 -1 -1 -0 -0 -0 -0 -0 -0 -1 -1 -1 -1 -0 -0 -0 -0 -0 -0 -0 -0 -0 -0 -0 -0 -0 -0 -0
-2 -2 -2 -2 -2 -2 -1 -0 -0 -0 0 -0 -0 -0 -0 -1 -1 -1 -1 -1 -1 -1 -1 -1 -1 -1 -1 -1 -1 -1 -1 -1 -1 -1 -1 -1 -1 -1 -1 -1 -1 -1 -1 -1
-3 -3 -3 -2 -2 -2 -1 -1 -1 -1 -1 -1 -1 -1 -1 -1 -1 -1 -1 -1 -1 -1 -1 -2 -2 -2 -2 -2 -1 -1 -1 -1 -1 -1 -1 -1 -1 -1 -1 -1 -1 -1 -2 -2
Wind_Speed
2 2 5 7 7 4 3 4 6 6 3 3 7 10 10 6 4 6 5 4 5 5 3 1 1 1 1 1 3 4 3 2 3 3 3 3 2 2 1 1 3 4 4 5
1 6 7 4 5 5 5 5 6 5 2 3 6 10 8 5 5 6 6 5 5 3 1 1 1 1 1 1 2 3 3 2 3 2 2 2 2 1 1 1 2 3 3 4
8 5 3 5 4 5 6 6 6 5 4 2 3 7 5 3 2 2 3 4 4 4 3 1 1 0 1 0 1 2 3 3 3 3 3 3 3 2 1 1 1 1 2 3
6 5 3 4 6 6 6 5 5 3 2 4 1 5 6 4 3 4 5 4 4 4 3 2 1 0 1 1 1 1 3 3 3 4 4 4 3 2 2 1 1 0 2 3
6 4 5 6 6 7 5 2 3 3 3 3 2 4 7 2 4 6 6 5 5 4 4 3 3 2 1 1 1 2 3 3 4 4 4 4 2 1 1 1 1 1 1 2
5 3 5 6 3 5 2 2 2 2 2 4 5 6 6 4 6 4 4 4 4 4 3 2 2 1 1 2 2 2 3 3 3 4 3 4 3 2 2 2 1 0 0 0
4 3 3 3 2 2 3 3 1 2 2 6 3 5 8 6 4 5 5 5 4 3 3 3 2 2 2 2 2 2 3 2 2 3 3 3 2 3 2 2 2 1 0 0
4 6 5 4 5 5 5 6 5 5 5 4 2 6 6 3 2 3 3 2 2 2 2 2 3 3 3 2 3 3 3 2 2 2 2 2 2 2 1 2 1 2 1 1
7 6 1 3 3 7 6 5 4 3 1 3 6 5 6 1 1 1 0 1 2 2 2 2 2 2 3 3 2 3 3 2 2 2 2 2 2 2 1 1 1 1 1 1
6 5 3 1 2 0 4 6 4 4 3 5 5 5 5 4 3 2 1 1 1 1 1 1 2 2 1 2 1 2 2 2 1 1 1 1 1 1 1 1 1 1 0 0
5 5 2 1 6 7 4 4 4 4 4 4 4 6 4 5 4 3 3 2 2 2 2 2 1 1 1 1 2 2 2 2 2 1 1 1 1 1 1 1 1 1 0 1
4 4 4 6 4 3 5 6 7 5 5 4 3 6 3 2 2 2 2 2 2 2 1 1 2 1 1 1 1 1 1 1 1 1 1 1 1 1 1 1 1 1 1 1
6 5 1 3 1 1 3 4 5 4 3 5 5 6 1 1 2 1 0 1 1 1 1 1 1 1 1 1 1 1 1 1 1 1 1 1 0 1 1 1 1 1 1 1
4 5 7 9 6 5 5 6 7 6 5 6 9 9 7 4 3 2 1 1 1 1 1 1 1 1 1 1 1 1 1 1 1 1 2 1 2 2 2 1 1 1 1 1
4 6 7 7 5 4 7 8 9 11 10 10 10 10 11 7 5 3 2 1 1 1 1 2 2 2 2 1 1 1 1 1 1 1 2 2 2 2 1 1 1 1 1 1
3 4 4 5 5 5 8 9 11 12 10 11 10 12 7 4 1 1 2 2 2 2 3 3 2 2 2 2 2 2 2 2 1 1 2 2 1 1 1 1 1 1 1 1
5 5 4 4 2 1 8 9 11 7 6 8 11 10 3 2 2 2 3 3 3 3 3 3 3 4 4 4 4 4 3 2 1 2 2 2 2 1 2 1 1 1 1 1
6 5 4 2 2 8 7 3 6 7 6 6 5 3 3 4 2 1 2 3 2 2 2 3 3 3 3 2 2 2 1 1 1 1 2 2 2 2 1 1 1 2 2 1
7 6 4 4 5 7 5 2 4 5 5 4 5 3 1 2 2 3 1 1 2 3 3 3 3 3 2 1 2 1 1 1 1 2 2 2 2 2 2 2 3 2 2 2
4 4 4 4 4 6 5 3 2 3 4 3 4 4 3 3 1 4 2 1 2 2 2 2 1 1 0 1 1 2 1 1 2 3 3 2 2 3 3 4 3 2 2 3
4 4 6 6 6 6 4 2 3 4 5 2 2 3 3 3 3 2 2 2 2 2 2 1 1 1 1 1 1 1 1 2 3 2 2 2 2 2 3 3 3 3 2 2
5 5 5 5 6 7 2 3 4 4 1 1 1 1 1 1 1 1 1 2 2 2 2 1 1 1 1 1 1 1 1 3 2 2 2 2 2 2 2 2 2 2 2 2
5 5 4 6 5 2 1 2 2 2 2 1 1 1 2 1 1 2 2 2 2 1 1 1 0 1 2 1 1 1 2 2 1 2 2 2 2 1 1 2 2 2 2 2
3 1 1 2 3 3 2 1 0 1 1 1 1 1 1 1 1 2 2 2 2 2 1 1 0 0 2 2 1 2 3 2 1 2 3 2 1 1 1 1 2 2 3 3
3 2 2 3 3 2 2 2 1 1 1 1 1 1 2 2 2 2 2 2 2 2 2 1 1 2 3 3 2 2 2 1 1 2 2 2 2 2 2 2 3 3 4 5
2 3 3 4 4 3 4 3 2 1 2 2 1 2 2 2 3 2 2 2 2 2 1 1 2 2 3 2 3 3 2 1 2 2 2 2 2 2 2 2 3 5 6 7
Wind_Direction
135 128 222 221 210 222 236 241 260 256 247 227 242 260 268 259 236 240 243 242 237 246 253 272 326 360 96 106 139 144 146 138 136 140 144 144 162 162 152 172 157 154 159 161
89 239 234 213 209 222 238 257 263 279 275 240 265 270 267 240 227 227 228 234 235 241 273 329 337 7 60 114 138 137 146 143 140 149 145 143 142 143 173 170 123 128 153 161
205 229 203 193 212 223 236 229 246 268 326 306 301 294 269 257 226 234 230 229 233 224 224 235 247 231 84 135 172 160 151 147 138 121 109 96 89 82 96 96 101 94 168 160
231 241 203 202 215 198 249 230 230 252 301 282 282 286 274 255 261 248 246 237 239 243 230 217 208 199 201 208 173 141 136 130 125 124 124 121 130 154 183 170 178 209 159 144
238 207 197 217 218 189 224 228 210 223 214 276 235 231 281 257 249 249 247 244 238 235 226 208 204 204 197 157 132 129 122 122 120 120 127 130 125 129 105 101 139 201 145 144
245 225 205 214 209 183 167 72 66 70 112 261 221 199 273 235 223 241 244 248 240 232 222 207 191 134 99 104 107 110 115 114 123 127 125 128 134 122 102 96 119 43 35 25
275 245 223 167 134 129 127 112 27 335 260 250 210 206 251 245 225 223 230 236 237 220 198 187 170 153 130 135 132 120 117 101 106 122 127 136 147 144 152 158 173 172 125 338
232 264 215 189 181 178 184 166 176 212 230 270 251 232 251 249 247 249 244 211 193 194 192 189 182 171 163 159 148 136 129 117 123 131 137 134 143 149 170 170 175 189 198 217
203 248 252 194 187 154 159 194 180 153 199 257 258 271 294 257 309 326 294 135 166 184 189 188 180 174 170 163 162 156 142 128 142 142 131 123 131 147 164 166 162 178 193 178
178 239 259 201 119 152 168 152 129 163 198 246 270 256 240 236 247 263 252 228 225 188 183 179 175 175 172 163 139 124 133 140 138 132 142 135 154 168 172 159 163 171 184 151
167 197 268 196 196 190 150 160 168 171 190 197 251 263 231 214 211 222 236 238 228 218 198 183 175 156 114 85 97 106 114 119 121 132 134 124 129 133 129 150 192 179 167 175
171 161 236 244 246 203 186 183 163 179 221 201 213 265 288 206 221 217 232 234 224 206 196 181 158 133 120 118 124 121 111 125 162 167 148 142 125 113 127 187 226 179 195 218
157 158 209 319 329 194 212 198 185 159 150 182 200 258 300 27 9 359 186 222 226 203 170 149 134 155 175 173 181 177 179 211 208 167 149 143 155 173 209 232 233 184 184 214
155 177 197 215 223 191 219 219 194 172 195 217 225 248 272 285 292 293 294 248 210 208 196 178 177 224 240 234 216 210 235 223 207 178 167 185 214 216 222 230 233 218 199 196
150 215 225 244 248 218 231 230 211 211 210 217 239 241 257 254 243 234 221 213 204 228 223 211 213 233 238 242 259 256 254 252 208 182 193 213 219 213 207 211 239 235 208 209
168 211 211 252 239 237 255 245 224 228 228 234 249 259 262 262 209 203 217 210 221 238 237 238 235 238 242 233 234 239 245 252 208 202 227 226 211 201 201 210 214 209 215 216
187 172 183 244 248 294 257 231 218 215 214 209 233 244 219 229 224 219 216 210 217 240 247 244 240 231 233 229 215 211 220 220 192 203 218 219 209 207 222 215 200 223 233 238
181 175 185 195 145 233 246 211 203 209 230 222 222 230 205 197 203 240 211 207 235 260 267 262 253 248 251 242 236 219 205 193 202 217 228 222 207 213 223 217 234 245 242 243
188 174 175 182 221 263 284 251 185 195 246 235 217 224 205 135 55 350 315 223 249 264 266 266 258 246 241 233 208 171 184 214 235 253 253 241 213 211 221 232 243 246 240 252
166 170 177 183 207 238 255 262 220 142 259 246 198 207 193 134 226 269 285 300 308 304 302 302 299 314 188 252 171 150 188 222 251 258 259 248 220 211 222 230 238 242 242 252
167 186 204 209 223 257 266 277 128 176 246 234 187 192 182 201 220 238 295 313 306 309 312 324 3 17 307 254 143 151 215 257 266 274 279 263 241 229 231 232 233 230 236 252
187 190 204 199 217 248 253 129 175 221 255 139 153 160 156 192 212 275 297 305 309 323 330 352 49 4 343 38 125 154 271 279 289 287 284 271 260 251 245 226 237 227 216 238
208 203 204 203 220 267 229 202 229 183 159 190 154 157 143 148 285 305 312 311 309 304 304 316 109 356 337 343 145 206 272 282 290 291 284 272 269 257 242 227 237 244 227 232
262 281 177 250 270 276 283 294 334 165 177 169 155 166 155 208 257 280 296 308 318 317 297 279 157 311 309 305 284 255 271 282 282 286 289 280 269 280 275 255 235 237 239 242
241 197 197 239 268 323 320 286 276 28 90 98 10 277 211 202 252 265 277 284 285 295 300 284 238 256 275 284 288 287 284 280 281 282 286 285 270 257 268 265 242 236 240 234
218 196 196 232 229 219 255 259 251 253 262 240 240 290 276 230 238 251 264 272 270 276 284 287 281 277 282 287 293 293 281 244 245 271 280 276 265 257 259 272 288 262 251 262
Height
1486 1490 1490 1489 1489 1489 1489 1490 1489 1484 1480 1481 1479 1476 1471 1470 1470 1470 1469 1470 1470 1470 1471 1471 1472 1472 1473 1473 1474 1476 1478 1480 1482 1484 1485 1487 1489 1491 1493 1495 1497 1499 1502 1504
1488 1488 1484 1484 1486 1487 1488 1489 1487 1482 1479 1479 1477 1473 1468 1467 1467 1466 1466 1467 1467 1467 1468 1468 1469 1470 1470 1471 1472 1474 1476 1478 1480 1483 1484 1485 1487 1490 1491 1493 1494 1496 1499 1501
1484 1482 1480 1482 1484 1485 1485 1486 1484 1483 1480 1478 1478 1472 1466 1464 1464 1464 1464 1464 1465 1465 1465 1466 1467 1467 1468 1469 1471 1472 1475 1476 1479 1481 1483 1484 1486 1488 1489 1491 1492 1494 1496 1498
1482 1479 1479 1480 1481 1482 1483 1480 1481 1482 1485 1485 1481 1481 1467 1464 1463 1462 1461 1461 1462 1463 1464 1465 1465 1466 1467 1469 1470 1472 1473 1475 1477 1479 1481 1482 1484 1485 1487 1489 1490 1492 1494 1496
1477 1476 1477 1477 1476 1478 1479 1478 1480 1481 1484 1486 1483 1483 1470 1464 1462 1459 1459 1459 1460 1461 1462 1463 1464 1465 1466 1468 1469 1471 1472 1474 1476 1478 1480 1481 1483 1484 1486 1487 1488 1490 1492 1493
1475 1473 1473 1473 1473 1474 1476 1479 1481 1484 1485 1485 1479 1482 1470 1465 1459 1456 1456 1456 1457 1459 1460 1462 1463 1465 1466 1467 1469 1470 1471 1472 1474 1476 1478 1479 1481 1482 1484 1484 1486 1487 1489 1491
1474 1472 1470 1470 1473 1475 1476 1481 1487 1487 1489 1480 1474 1475 1467 1456 1455 1454 1454 1454 1455 1457 1458 1460 1461 1463 1464 1466 1468 1469 1470 1471 1473 1475 1476 1478 1480 1481 1482 1483 1484 1486 1487 1488
1474 1473 1468 1468 1469 1472 1475 1476 1482 1482 1482 1480 1476 1473 1461 1453 1452 1451 1451 1452 1453 1455 1456 1458 1459 1461 1463 1465 1466 1468 1469 1470 1472 1473 1475 1477 1478 1479 1480 1481 1483 1484 1485 1486
1473 1470 1465 1465 1465 1468 1472 1476 1475 1481 1483 1483 1474 1467 1458 1451 1451 1450 1450 1450 1451 1452 1454 1456 1458 1460 1461 1463 1465 1466 1467 1469 1470 1472 1473 1474 1476 1477 1478 1479 1481 1482 1483 1484
1467 1469 1465 1465 1465 1466 1467 1471 1478 1480 1478 1475 1467 1465 1459 1451 1450 1450 1450 1449 1449 1451 1452 1454 1456 1458 1460 1461 1463 1465 1466 1468 1469 1470 1471 1472 1474 1475 1476 1477 1478 1479 1480 1481
1464 1468 1467 1466 1465 1465 1469 1471 1471 1476 1476 1475 1470 1461 1449 1448 1447 1448 1448 1448 1448 1449 1451 1452 1454 1457 1459 1460 1462 1464 1465 1466 1467 1468 1470 1471 1472 1473 1474 1475 1475 1476 1477 1478
1462 1467 1469 1465 1461 1461 1462 1464 1468 1472 1474 1478 1477 1463 1445 1446 1446 1446 1447 1447 1447 1449 1450 1452 1454 1456 1457 1459 1461 1462 1463 1464 1466 1467 1468 1469 1470 1471 1471 1472 1473 1473 1474 1474
1459 1465 1467 1463 1465 1463 1462 1462 1463 1466 1471 1477 1474 1459 1446 1446 1445 1445 1446 1446 1447 1448 1449 1451 1452 1454 1456 1457 1459 1460 1461 1462 1464 1465 1466 1466 1467 1468 1469 1469 1470 1470 1471 1471
1453 1459 1460 1457 1453 1456 1459 1459 1460 1463 1468 1469 1463 1453 1446 1446 1446 1446 1446 1446 1446 1447 1448 1449 1451 1452 1454 1456 1457 1458 1459 1460 1461 1462 1463 1464 1464 1465 1466 1466 1467 1467 1468 1468
1452 1455 1455 1452 1450 1452 1451 1451 1454 1455 1455 1457 1449 1449 1443 1443 1444 1444 1444 1445 1445 1446 1447 1448 1450 1451 1452 1454 1455 1456 1457 1458 1459 1459 1460 1461 1461 1462 1462 1462 1463 1463 1464 1464
1451 1454 1454 1452 1450 1450 1448 1446 1447 1447 1447 1447 1445 1443 1440 1440 1441 1442 1443 1443 1444 1445 1445 1447 1448 1449 1450 1451 1452 1453 1454 1455 1455 1456 1457 1457 1458 1458 1458 1459 1459 1459 1459 1460
1451 1453 1454 1453 1450 1449 1448 1441 1440 1441 1440 1441 1440 1438 1438 1440 1440 1440 1441 1441 1442 1443 1443 1444 1445 1446 1447 1448 1448 1449 1450 1451 1452 1452 1453 1453 1454 1454 1454 1455 1455 1455 1455 1455
1447 1450 1453 1454 1454 1453 1436 1433 1433 1434 1435 1436 1434 1435 1435 1436 1438 1439 1439 1439 1440 1440 1441 1441 1442 1443 1444 1444 1445 1446 1446 1447 1448 1448 1449 1449 1449 1449 1450 1450 1450 1451 1451 1451
1441 1445 1450 1452 1451 1441 1436 1432 1432 1434 1434 1433 1433 1434 1435 1436 1436 1437 1437 1438 1438 1438 1438 1439 1439 1440 1440 1441 1442 1443 1443 1444 1444 1444 1444 1445 1445 1445 1446 1446 1446 1446 1446 1446
1440 1442 1446 1448 1447 1440 1432 1430 1428 1432 1434 1431 1430 1431 1432 1434 1438 1437 1436 1436 1435 1436 1436 1436 1436 1436 1437 1438 1438 1439 1439 1440 1440 1440 1441 1441 1441 1442 1442 1442 1442 1442 1442 1442
1440 1442 1443 1443 1441 1435 1431 1428 1428 1435 1431 1428 1428 1429 1430 1432 1433 1434 1434 1434 1433 1433 1433 1433 1433 1433 1434 1434 1435 1435 1436 1436 1437 1437 1437 1437 1437 1438 1438 1438 1438 1438 1438 1438
1435 1438 1439 1439 1440 1437 1428 1428 1430 1429 1427 1426 1427 1428 1429 1430 1430 1431 1431 1431 1431 1431 1431 1431 1431 1431 1431 1432 1432 1432 1433 1433 1433 1433 1433 1433 1433 1433 1433 1433 1433 1433 1433 1433
1432 1432 1431 1432 1432 1428 1426 1426 1426 1425 1426 1426 1426 1427 1427 1428 1428 1429 1429 1429 1429 1429 1429 1429 1429 1429 1429 1429 1430 1430 1430 1430 1429 1429 1429 1429 1429 1429 1429 1429 1429 1429 1429 1429
1431 1429 1430 1431 1428 1426 1425 1425 1425 1425 1425 1425 1426 1426 1427 1427 1427 1427 1427 1427 1426 1426 1427 1427 1427 1427 1427 1427 1427 1427 1427 1427 1426 1426 1426 1425 1425 1426 1426 1426 1426 1426 1426 1425
1429 1429 1429 1429 1427 1425 1424 1424 1425 1425 1425 1425 1426 1426 1426 1426 1425 1425 1425 1425 1425 1425 1425 1425 1425 1425 1425 1425 1425 1425 1424 1424 1424 1423 1423 1422 1422 1422 1422 1422 1422 1422 1422 1422
1427 1427 1427 1426 1424 1425 1424 1424 1424 1424 1424 1424 1424 1424 1424 1424 1424 1424 1423 1423 1423 1423 1423 1423 1423 1422 1422 1422 1422 1422 1422 1421 1421 1420 1419 1419 1419 1419 1418 1418 1418 1417 1418 1417